Stations météo

réclame
Mon MeteoGroup
Bournemouth Airport, Grande-Bretagne (3862): Température de l'air & dewpoint: 19.04.2018 01:00:00 - 25.04.2018 01:00:00 (BST)Bournemouth Airport, Grande-Bretagne (3862): Température de l'air -20cm & Température de l'air -100cm: 19.04.2018 01:00:00 - 25.04.2018 01:00:00 (BST)Bournemouth Airport, Grande-Bretagne (3862): Vitesse du vent & gusts: 19.04.2018 01:00:00 - 25.04.2018 01:00:00 (BST)Bournemouth Airport, Grande-Bretagne (3862): Direction du vent: 19.04.2018 01:00:00 - 25.04.2018 01:00:00 (BST)Bournemouth Airport, Grande-Bretagne (3862): reduced air pressure: 19.04.2018 01:00:00 - 25.04.2018 01:00:00 (BST)Bournemouth Airport, Grande-Bretagne (3862): visibility: 19.04.2018 01:00:00 - 25.04.2018 01:00:00 (BST)Bournemouth Airport, Grande-Bretagne (3862): Ensoleillement: 19.04.2018 01:00:00 - 25.04.2018 01:00:00 (BST)Bournemouth Airport, Grande-Bretagne (3862): Quantités de précipitations: 19.04.2018 01:00:00 - 25.04.2018 01:00:00 (BST)
Date & Time tt [°C] td [°C] tt -20cm [°C] tt -100cm [°C] ff [km/h] ff [knt] fx [km/h] fx [knt] dd ppp [hPa] vv [km] sd [min] rr [mm]
25.04.2018 01:00:00 9,5 7,8 - - 16 9 - - WNW 1011,4 25 - 0,0
25.04.2018 00:00:00 10,8 9,1 - - 18 10 - - W 1010,9 10 0 0,0
24.04.2018 23:00:00 11,4 10,7 - - 26 14 46 25 WSW 1010,3 8 0 0,0
24.04.2018 22:00:00 11,4 10,8 - - 29 16 52 28 WSW 1010,4 7 0 0,4
24.04.2018 21:00:00 11,3 10,8 - - 31 17 50 27 SW 1010,7 8 0 0,2
24.04.2018 20:00:00 11,3 10,9 - - 34 18 54 29 SW 1010,7 4,0 0 0,0
24.04.2018 19:00:00 11,4 10,9 - - 31 17 48 26 SW 1011,3 8 0 0,0
24.04.2018 18:00:00 11,7 11,0 - - 34 18 52 28 WSW 1011,8 5 0 0,0
24.04.2018 17:00:00 11,9 11,2 - - 29 16 46 25 SW 1012,6 4,0 0 0,0
24.04.2018 16:00:00 11,6 10,9 - - 22 12 - - SW 1013,5 3,5 0 0,2
24.04.2018 15:00:00 11,8 11,2 - - 26 14 48 26 SW 1014,2 7 0 0,0
24.04.2018 14:00:00 11,9 11,3 - - 21 11 - - SW 1014,9 1,5 0 0,4
24.04.2018 13:00:00 12,1 10,9 - - 24 13 - - SW 1015,8 5 0 0,0
24.04.2018 12:00:00 14,0 10,6 - - 16 9 - - SSW 1016,3 10 6 0,0
24.04.2018 11:00:00 14,3 10,3 - - 16 9 - - WSW 1016,5 10 0 0,0
24.04.2018 10:00:00 14,4 9,7 13,2 10,7 13 7 - - WSW 1016,8 10 42 0,0
24.04.2018 09:00:00 12,7 9,6 - - 16 9 - - W 1017,1 10 6 0,0
24.04.2018 08:00:00 11,7 9,6 - - 13 7 - - WSW 1016,9 10 0 0,0
24.04.2018 07:00:00 11,2 9,8 - - 11 6 - - SW 1016,6 10 0 0,0
24.04.2018 06:00:00 10,9 9,7 - - 9 5 - - WSW 1016,3 10 0 0,0
24.04.2018 05:00:00 10,9 9,6 - - 13 7 - - W 1016,1 17 0 0,0
24.04.2018 04:00:00 10,7 9,7 - - 15 8 - - W 1016,5 18 0 0,0
24.04.2018 03:00:00 10,8 9,6 - - 15 8 - - WSW 1016,5 15 0 0,0
24.04.2018 02:00:00 10,8 9,3 - - 18 10 - - WSW 1016,6 15 0 0,0
24.04.2018 01:00:00 10,8 9,0 - - 21 11 - - WSW 1017,1 15 - 0,0
24.04.2018 00:00:00 10,7 8,5 - - 22 12 - - WSW 1017,5 10 0 0,0
23.04.2018 23:00:00 10,5 8,0 - - 26 14 - - WSW 1017,7 10 0 0,0
23.04.2018 22:00:00 10,8 7,8 - - 21 11 - - WSW 1018,0 10 0 0,0
23.04.2018 21:00:00 11,2 7,3 - - 22 12 - - WSW 1017,8 10 0 0,0
23.04.2018 20:00:00 11,3 7,5 - - 22 12 - - WSW 1017,6 10 0 0,0
23.04.2018 19:00:00 11,6 7,2 - - 26 14 - - WSW 1017,6 10 24 0,0
23.04.2018 18:00:00 13,0 7,5 - - 24 13 - - WSW 1017,5 10 60 0,0
23.04.2018 17:00:00 13,5 7,8 - - 22 12 - - WSW 1017,7 10 42 0,0
23.04.2018 16:00:00 14,0 8,0 - - 26 14 - - WSW 1018,0 10 36 0,0
23.04.2018 15:00:00 12,9 7,5 - - 22 12 - - WSW 1018,6 10 0 0,0
23.04.2018 14:00:00 13,3 7,4 - - 22 12 - - WSW 1018,8 10 6 0,0
23.04.2018 13:00:00 13,4 7,9 - - 21 11 - - WSW 1018,6 10 12 0,0
23.04.2018 12:00:00 13,1 6,8 - - 16 9 - - W 1018,5 10 12 0,0
23.04.2018 11:00:00 12,4 8,4 - - 18 10 - - WSW 1018,5 10 0 0,0
23.04.2018 10:00:00 12,0 7,5 13,7 10,7 22 12 - - WSW 1018,3 10 18 0,0
23.04.2018 09:00:00 11,0 8,1 - - 13 7 - - WSW 1017,9 10 12 0,0
23.04.2018 08:00:00 9,8 7,7 - - 15 8 - - WSW 1017,6 10 36 0,0
23.04.2018 07:00:00 7,3 6,1 - - 5 3 - - SW 1017,0 10 0 0,0
23.04.2018 06:00:00 6,8 6,1 - - 4 2 - - SW 1016,1 10 0 0,0
23.04.2018 05:00:00 4,4 2,9 - - 4 2 - - SE 1015,9 25 0 0,0
23.04.2018 04:00:00 6,2 4,7 - - 9 5 - - W 1015,5 27 0 0,0
23.04.2018 03:00:00 6,8 5,1 - - 15 8 - - W 1015,7 26 0 0,0
23.04.2018 02:00:00 6,4 4,5 - - 11 6 - - W 1015,5 30 0 0,0
23.04.2018 01:00:00 7,4 5,3 - - 15 8 - - W 1015,3 29 - 0,0
23.04.2018 00:00:00 7,8 5,8 - - 8 4 - - W 1015,0 27 0 0,0
22.04.2018 23:00:00 9,8 7,6 - - 13 7 - - WNW 1014,2 27 0 0,0
22.04.2018 22:00:00 11,0 9,2 - - 13 7 - - WNW 1013,4 10 0 0,0
22.04.2018 21:00:00 12,3 10,2 - - 13 7 - - WSW 1012,5 10 0 0,0
22.04.2018 20:00:00 13,8 10,6 - - 15 8 - - WSW 1011,7 10 30 0,0
22.04.2018 19:00:00 14,6 10,6 - - 15 8 - - WSW 1011,1 10 18 0,0
22.04.2018 18:00:00 15,5 9,7 - - 16 9 - - WSW 1010,7 10 54 0,0
22.04.2018 17:00:00 16,6 8,1 - - 21 11 - - SW 1010,4 10 36 0,0
22.04.2018 16:00:00 15,9 10,9 - - 21 11 - - WSW 1010,4 10 30 0,0
22.04.2018 15:00:00 17,3 11,1 - - 21 11 - - SW 1010,3 10 6 0,0
22.04.2018 14:00:00 16,7 12,0 - - 16 9 - - S 1009,8 10 12 0,0
22.04.2018 13:00:00 18,3 11,2 - - 15 8 - - SW 1009,6 10 60 0,0
22.04.2018 12:00:00 18,3 12,1 - - 16 9 - - SSW 1009,9 10 60 0,0
22.04.2018 11:00:00 17,6 11,9 - - 15 8 - - WSW 1010,2 10 60 0,0
22.04.2018 10:00:00 16,3 12,6 13,2 10,4 15 8 - - SW 1010,3 10 60 0,0
22.04.2018 09:00:00 14,5 12,4 - - 8 4 - - S 1010,3 9 60 0,0
22.04.2018 08:00:00 11,9 10,8 - - 9 5 - - S 1010,4 5 60 0,0
22.04.2018 07:00:00 10,6 9,7 - - 9 5 - - S 1010,3 10 0 0,0
22.04.2018 06:00:00 11,0 9,9 - - 11 6 - - SSE 1010,2 12 0 0,0
22.04.2018 05:00:00 11,2 10,0 - - 8 4 - - SSE 1010,6 19 0 0,0
22.04.2018 04:00:00 12,5 10,0 - - 9 5 - - ESE 1011,3 22 0 0,0
22.04.2018 03:00:00 13,4 10,2 - - 13 7 - - ESE 1011,8 24 0 0,2
22.04.2018 02:00:00 13,2 11,7 - - 2 1 - - E 1012,9 20 0 0,8
22.04.2018 01:00:00 14,3 12,1 - - 15 8 - - W 1013,4 8 - 0,2
22.04.2018 00:00:00 14,9 12,3 - - 15 8 - - ESE 1013,4 18 0 0,0
21.04.2018 23:00:00 14,5 11,5 - - 28 15 - - SSE 1014,4 10 0 0,6
21.04.2018 22:00:00 14,4 13,3 - - 8 4 - - NW 1014,3 10 0 0,0
21.04.2018 21:00:00 15,7 13,3 - - 5 3 - - E 1014,6 10 0 0,2
21.04.2018 20:00:00 15,2 12,4 - - 28 15 57 31 SE 1015,1 1,2 0 4,6
21.04.2018 19:00:00 21,2 10,7 - - 11 6 - - ESE 1014,4 10 36 0,0
21.04.2018 18:00:00 21,7 11,3 - - 18 10 - - ESE 1015,1 10 60 0,0
21.04.2018 17:00:00 21,5 12,3 - - 18 10 - - ESE 1015,9 10 60 0,0
21.04.2018 16:00:00 19,0 14,5 - - 13 7 - - ESE 1016,9 8 6 0,4
21.04.2018 15:00:00 16,6 12,8 - - 9 5 - - SSW 1019,2 10 6 1,6
21.04.2018 14:00:00 19,3 11,9 - - 15 8 - - E 1018,6 9 0 0,0
21.04.2018 13:00:00 18,7 11,9 - - 11 6 - - E 1019,2 7 18 0,0
21.04.2018 12:00:00 18,3 11,4 - - 13 7 - - E 1020,0 8 0 0,0
21.04.2018 11:00:00 17,4 10,9 - - 8 4 - - SSE 1020,6 10 36 0,0
21.04.2018 10:00:00 17,9 11,4 13,2 10,0 8 4 - - SSE 1020,9 10 60 0,0
21.04.2018 09:00:00 15,2 11,7 - - 8 4 - - E 1020,8 7 60 0,0
21.04.2018 08:00:00 12,8 12,6 - - 4 2 - - ENE 1021,2 10 54 0,0
21.04.2018 07:00:00 8,1 7,7 - - 4 2 - - NNW 1021,4 10 0 0,0
21.04.2018 06:00:00 7,8 7,2 - - 5 3 - - N 1021,2 10 0 0,0
21.04.2018 05:00:00 8,6 8,0 - - 2 1 - - WNW 1021,2 11 0 0,0
21.04.2018 04:00:00 8,7 7,9 - - 5 3 - - NW 1021,5 14 0 0,0
21.04.2018 03:00:00 9,6 8,9 - - 2 1 - - WNW 1021,7 11 0 0,0
21.04.2018 02:00:00 10,0 8,8 - - 5 3 - - WNW 1022,0 14 0 0,0
21.04.2018 01:00:00 11,6 10,1 - - 2 1 - - NNW 1022,3 15 - 0,0
21.04.2018 00:00:00 11,2 9,6 - - 4 2 - - NW 1022,6 18 0 0,0
20.04.2018 23:00:00 12,7 10,9 - - 5 3 - - WNW 1022,9 10 0 0,0
20.04.2018 22:00:00 13,4 11,3 - - 8 4 - - WNW 1023,1 10 0 0,0
20.04.2018 21:00:00 16,9 13,9 - - 4 2 - - W 1022,8 10 0 0,0
20.04.2018 20:00:00 19,3 13,8 - - 9 5 - - WNW 1022,4 10 48 0,0
20.04.2018 19:00:00 22,1 13,7 - - 8 4 - - WNW 1022,2 10 60 0,0
20.04.2018 18:00:00 23,0 14,3 - - 11 6 - - W 1022,3 10 60 0,0
20.04.2018 17:00:00 23,4 14,7 - - 13 7 - - W 1022,6 10 60 0,0
20.04.2018 16:00:00 22,9 14,2 - - 13 7 - - W 1023,0 10 60 0,0
20.04.2018 15:00:00 22,8 14,2 - - 13 7 - - W 1023,4 10 60 0,0
20.04.2018 14:00:00 22,0 13,5 - - 11 6 - - WNW 1023,6 10 60 0,0
20.04.2018 13:00:00 21,6 14,7 - - 5 3 - - - 1024,1 10 60 0,0
20.04.2018 12:00:00 19,9 13,1 - - 11 6 - - NNW 1024,2 10 60 0,0
20.04.2018 11:00:00 18,5 13,5 - - 9 5 - - NNW 1024,3 10 60 0,0
20.04.2018 10:00:00 15,7 12,4 12,5 9,7 13 7 - - NNW 1024,2 10 60 0,0
20.04.2018 09:00:00 13,1 11,6 - - 11 6 - - NW 1024,2 10 60 0,0
20.04.2018 08:00:00 10,4 10,3 - - 9 5 - - NW 1024,0 8 24 0,0
20.04.2018 07:00:00 8,1 7,9 - - 11 6 - - WNW 1023,7 3,0 6 0,0
20.04.2018 06:00:00 7,4 7,1 - - 9 5 - - WNW 1023,5 7 0 0,0
20.04.2018 05:00:00 7,4 7,1 - - 8 4 - - NW 1023,2 7 0 0,0
20.04.2018 04:00:00 8,3 7,9 - - 5 3 - - WNW 1023,3 8 0 0,0
20.04.2018 03:00:00 7,7 7,1 - - 8 4 - - WNW 1023,4 10 0 0,0
20.04.2018 02:00:00 8,9 8,3 - - 8 4 - - WNW 1023,6 12 0 0,0
20.04.2018 01:00:00 9,7 8,9 - - 5 3 - - NW 1023,6 15 - 0,0
20.04.2018 00:00:00 10,3 8,5 - - 8 4 - - W 1023,6 17 0 0,0
19.04.2018 23:00:00 12,0 9,8 - - 5 3 - - WNW 1023,5 19 0 0,0
19.04.2018 22:00:00 13,2 10,2 - - 5 3 - - WNW 1023,6 10 0 0,0
19.04.2018 21:00:00 15,0 10,7 - - 8 4 - - WNW 1023,5 10 0 0,0
19.04.2018 20:00:00 16,9 10,3 - - 2 1 - - SSE 1023,1 10 54 0,0
19.04.2018 19:00:00 19,6 11,0 - - 9 5 - - SSE 1023,0 10 60 0,0
19.04.2018 18:00:00 19,5 11,0 - - 9 5 - - S 1023,0 10 60 0,0
19.04.2018 17:00:00 19,2 10,9 - - 15 8 - - S 1023,0 10 60 0,0
19.04.2018 16:00:00 22,0 12,0 - - 15 8 - - S 1022,8 10 60 0,0
19.04.2018 15:00:00 23,0 11,1 - - 11 6 - - SSE 1023,0 10 60 0,0
19.04.2018 14:00:00 23,9 11,8 - - 13 7 - - S 1023,0 10 60 0,0
19.04.2018 13:00:00 23,1 11,7 - - 13 7 - - SSE 1023,3 10 60 0,0
19.04.2018 12:00:00 21,7 12,3 - - 4 2 - - - 1023,6 10 60 0,0
19.04.2018 11:00:00 18,7 10,8 - - 5 3 - - - 1023,6 10 60 0,0
19.04.2018 10:00:00 17,5 10,6 11,7 9,4 5 3 - - - 1023,5 10 60 0,0
19.04.2018 09:00:00 16,0 11,2 - - 2 1 - - SSE 1023,4 13 60 -
19.04.2018 08:00:00 12,0 10,3 - - 4 2 - - N 1023,3 10 60 -
19.04.2018 07:00:00 9,9 9,4 - - 5 3 - - E 1022,6 10 18 -
19.04.2018 06:00:00 7,8 6,7 - - 4 2 - - E 1022,6 10 0 -
19.04.2018 05:00:00 7,9 5,9 - - 5 3 - - ENE 1022,6 14 0 -
19.04.2018 04:00:00 10,0 8,0 - - 8 4 - - W 1022,7 14 0 -
19.04.2018 03:00:00 13,1 9,4 - - 8 4 - - S 1022,6 17 0 -
19.04.2018 02:00:00 15,0 9,7 - - 13 7 - - SSE 1022,9 18 0 0,0
19.04.2018 01:00:00 14,4 9,1 - - 11 6 - - S 1023,3 17 - 0,0

tt = Température de l'air
td = dewpoint
tt -20cm = Température de l'air -20cm
tt -100cm = Température de l'air -100cm
ff = Vitesse du vent
fx = gusts
dd = Direction du vent
ppp = reduced air pressure
vv = visibility
sd = Ensoleillement
rr = Quantités de précipitations

stations d'obs. à proximité